Regional Weather Roundup
Issued by NWS Charleston, WV

Home | Current Version | Previous Version | Text Only | Print | Product List | Glossary Off
Versions: 1 2 3 4 5 6 7 8 9 10 11 12 13 14 15 16 17 18 19 20 21 22 23 24 25 26 27

000
ASUS41 KRLX 180810
RWRRLX
West Virginia Regional Weather Roundup
National Weather Service Charleston WV
400 AM EDT WED APR 18 2018

Note: "fair" indicates few or no clouds below 12,000 feet with no
significant weather and/or obstructions to visibility.

WVZ003-180900-
Northern Panhandle of West Virginia

CITY           SKY/WX    TMP DP  RH WIND       PRES   REMARKS
WHEELING       FAIR      30  22  72 SW5       29.87F
$$

WVZ009-180900-
Northwest West Virginia

CITY           SKY/WX    TMP DP  RH WIND       PRES   REMARKS
PARKERSBURG    FAIR      27  24  89 CALM      29.94S
$$

WVZ006-180900-
Western West Virginia

CITY           SKY/WX    TMP DP  RH WIND       PRES   REMARKS
HUNTINGTON     CLOUDY    37  26  64 E6        29.90F
$$

WVZ015-180900-
West Central West Virginia

CITY           SKY/WX    TMP DP  RH WIND       PRES   REMARKS
CHARLESTON     CLOUDY    36  30  79 NE3       29.90F
$$

WVZ022-031-180900-
North Central West Virginia

CITY           SKY/WX    TMP DP  RH WIND       PRES   REMARKS
CLARKSBURG     FAIR      30  23  75 SW3       29.89F
MORGANTOWN     FAIR      29  23  78 CALM      29.89F
$$

WVZ025-035-042-045-180900-
Southern West Virginia

CITY           SKY/WX    TMP DP  RH WIND       PRES   REMARKS
BECKLEY        MOCLDY    33  28  81 CALM      29.84F
LOGAN          MOCLDY    37  30  75 CALM      29.86S
BLUEFIELD      FAIR      43  28  55 W5        29.85S
LEWISBURG      CLOUDY    40  31  70 SW7       29.84S
$$

WVZ047-180900-
Northern Mountains of West Virginia

CITY           SKY/WX    TMP DP  RH WIND       PRES   REMARKS
ELKINS         FAIR      25  22  88 CALM      29.87S
$$

WVZ052-180900-
Eastern Panhandle of West Virginia

CITY           SKY/WX    TMP DP  RH WIND       PRES   REMARKS
MARTINSBURG    FAIR      35  21  56 NW5       29.87S
PETERSBURG     FAIR      29  24  80 SE8       29.85F
$$




USA.gov is the U.S. government's official web portal to all federal, state and local government web resources and services.